Topeka, KS

12:12 PM CDT on May 27, 2018 (GMT -0500)
Billard Municipal

Weather History for KTOP - December, 2014

Change the Weather History Date:

Sunday, December 14, 2014

  Actual Average Record
Temperature  
Mean Temperature 56 °F 32 °F  
Max Temperature 62 °F 42 °F 70 °F (1933)
Min Temperature 50 °F 22 °F -8 °F (1901)
Degree Days  
Heating Degree Days 9 33  
Month to date heating degree days 353 436  
Since 1 July heating degree days 1384 1430  
Cooling Degree Days 0 0  
Month to date cooling degree days 0 0  
Year to date cooling degree days 1611 1422  
Growing Degree Days 6 (Base 50)    
Moisture  
Dew Point 53 °F    
Average Humidity 86    
Maximum Humidity 93    
Minimum Humidity 78    
Precipitation  
Precipitation 0.72 in 0.05 in 0.78 in (1971)
Month to date precipitation 1.81 0.71  
Year to date precipitation 30.69 35.82  
Snow  
Snow 0.00 in 0.20 in 8.30 in (1987)
Month to date snowfall 0.0 2.1  
Year to date snowfall 23.5 14.7  
Since 1 July snowfall 0.4 3.4  
Snow Depth 0.00 in    
Sea Level Pressure  
Sea Level Pressure 29.83 in    
Wind  
Wind Speed 11 mph (SE)    
Max Wind Speed 20 mph    
Max Gust Speed 25 mph    
Visibility 8 miles    
Events Rain    
T = Trace of Precipitation, MM = Missing Value Source: NWS Daily Summary

Daily Weather History Graph

Daily Weather History Graph

Search for Another Location

Airport or City:

Astronomy

Dec. 14, 2014 Rise Set
Actual Time 7:33 AM CST 5:00 PM CST
Civil Twilight 7:03 AM CST 5:30 PM CST
Nautical Twilight 6:30 AM CST 6:04 PM CST
Astronomical Twilight 5:57 AM CST 6:36 PM CST
Moon 12:00 AM CST (12/14) 12:28 PM CST (12/14)
Length of Visible Light 10h 26m
Length of Day
9h 26m
Waning Gibbous, 48% of the Moon is Illuminated
Dec 14
Waning Gibbous
Dec 21
New
Dec 28
First Quarter
Jan 4
Full
Jan 13
Last Quarter

Hourly Weather History & Observations

Time (CST) Temp. Dew Point Humidity Pressure Visibility Wind Dir Wind Speed Gust Speed Precip Events Conditions
12:53 AM 57.0 °F 54.0 °F 89% 29.96 in 8.0 mi South 9.2 mph - N/A   Overcast
1:53 AM 57.9 °F 54.0 °F 87% 29.96 in 8.0 mi South 9.2 mph - N/A   Overcast
2:53 AM 57.9 °F 54.0 °F 87% 29.96 in 8.0 mi South 9.2 mph - N/A   Overcast
3:53 AM 57.0 °F 53.1 °F 87% 29.95 in 9.0 mi South 8.1 mph - N/A   Overcast
4:53 AM 57.0 °F 53.1 °F 87% 29.94 in 8.0 mi South 8.1 mph - N/A   Overcast
5:44 AM 55.9 °F 54.0 °F 93% 29.94 in 5.0 mi SSE 9.2 mph - N/A   Overcast
5:53 AM 55.9 °F 54.0 °F 93% 29.94 in 5.0 mi SSE 9.2 mph - N/A   Overcast
6:53 AM 55.9 °F 54.0 °F 93% 29.93 in 5.0 mi SE 11.5 mph - N/A   Overcast
7:51 AM 55.4 °F 53.6 °F 94% 29.93 in 6.0 mi SSE 11.5 mph - N/A   Overcast
7:53 AM 57.0 °F 54.0 °F 89% 29.92 in 6.0 mi SSE 10.4 mph - N/A   Overcast
8:53 AM 57.0 °F 53.1 °F 87% 29.93 in 7.0 mi SSE 12.7 mph - N/A   Overcast
9:41 AM 57.9 °F 53.1 °F 84% 29.94 in 9.0 mi SSE 11.5 mph - N/A   Overcast
9:53 AM 57.9 °F 53.1 °F 84% 29.93 in 9.0 mi SSE 11.5 mph - N/A   Overcast
10:15 AM 57.9 °F 53.1 °F 84% 29.93 in 9.0 mi SSE 12.7 mph - N/A   Overcast
10:53 AM 57.9 °F 53.1 °F 84% 29.91 in 10.0 mi SE 9.2 mph - N/A   Overcast
11:17 AM 59.0 °F 53.1 °F 81% 29.91 in 10.0 mi SE 9.2 mph - N/A   Overcast
11:53 AM 60.1 °F 53.1 °F 78% 29.88 in 10.0 mi SSE 11.5 mph - N/A   Overcast
12:53 PM 60.1 °F 54.0 °F 80% 29.86 in 10.0 mi SSE 11.5 mph - N/A   Overcast
1:26 PM 61.0 °F 54.0 °F 78% 29.85 in 10.0 mi SSE 11.5 mph - N/A   Overcast
1:53 PM 61.0 °F 54.0 °F 78% 29.83 in 10.0 mi SE 10.4 mph - N/A   Overcast
2:53 PM 61.0 °F 54.0 °F 78% 29.81 in 10.0 mi SE 13.8 mph - N/A   Overcast
3:51 PM 60.8 °F 53.6 °F 77% 29.80 in 10.0 mi SE 12.7 mph - N/A   Overcast
3:53 PM 61.0 °F 54.0 °F 78% 29.80 in 10.0 mi SE 13.8 mph - N/A   Overcast
4:32 PM 61.0 °F 53.1 °F 75% 29.79 in 10.0 mi SE 12.7 mph - N/A   Mostly Cloudy
4:53 PM 61.0 °F 53.1 °F 75% 29.77 in 10.0 mi ESE 12.7 mph - N/A   Overcast
5:53 PM 61.0 °F 53.1 °F 75% 29.75 in 10.0 mi ESE 13.8 mph - N/A   Overcast
6:19 PM 57.9 °F 55.0 °F 90% 29.77 in 2.5 mi ESE 15.0 mph - 0.11 in Rain Heavy Rain
6:27 PM 57.9 °F 55.0 °F 90% 29.76 in 4.0 mi ESE 10.4 mph - 0.14 in Rain Rain
6:53 PM 57.0 °F 55.0 °F 93% 29.76 in 3.0 mi SE 5.8 mph - 0.23 in Rain Heavy Rain
7:02 PM 57.0 °F 55.9 °F 96% 29.77 in 3.0 mi SSE 4.6 mph - 0.07 in Rain Rain
7:17 PM 57.0 °F 55.0 °F 93% 29.77 in 2.5 mi ESE 11.5 mph - 0.14 in Rain Heavy Rain
7:31 PM 57.0 °F 55.0 °F 93% 29.75 in 3.0 mi ESE 16.1 mph - 0.21 in Rain Rain
7:37 PM 57.0 °F 55.9 °F 96% 29.75 in 4.0 mi East 12.7 mph - 0.23 in Rain Rain
7:53 PM 57.0 °F 55.0 °F 93% 29.73 in 7.0 mi East 15.0 mph 20.7 mph 0.23 in Rain Light Rain
8:42 PM 57.0 °F 54.0 °F 89% 29.74 in 10.0 mi ESE 13.8 mph - 0.01 in   Overcast
8:53 PM 57.0 °F 54.0 °F 89% 29.73 in 9.0 mi ESE 13.8 mph - 0.01 in   Overcast
9:16 PM 55.9 °F 54.0 °F 93% 29.74 in 2.5 mi SSE 5.8 mph - 0.06 in Rain Heavy Rain
9:26 PM 55.9 °F 54.0 °F 93% 29.76 in 3.0 mi SSW 12.7 mph - 0.09 in Rain Rain
9:37 PM 55.9 °F 51.1 °F 84% 29.75 in 5.0 mi WSW 10.4 mph - 0.13 in Rain Light Rain
9:53 PM 55.0 °F 48.9 °F 80% 29.75 in 8.0 mi SW 8.1 mph - 0.16 in Rain Light Rain
10:53 PM 52.0 °F 50.0 °F 93% 29.71 in 10.0 mi East 12.7 mph - 0.09 in   Overcast
11:29 PM 51.1 °F 48.9 °F 92% 29.70 in 10.0 mi East 5.8 mph - N/A   Mostly Cloudy
11:53 PM 50.0 °F 48.0 °F 93% 29.70 in 10.0 mi East 5.8 mph - N/A   Mostly Cloudy